Date String (YYYY-MM-DD hh:mm:ss) UTC,Instrument flags,absolute air pressure of the measurement (hPa),sample flow rate (lpm),inlet stack bypass flow (lpm),air temperature of the measurement (°C),ambient temperature measured by the external sensor (°C),aerosol sample conditioner tube jacket temperature (°C),OPC LED temperature (°C),internal box temperature (°C),relative humidity of the measurement (%),span deviation,mass concentration of particles derived from Lorenz-Mie calculation of OPC scattering (μg/m³),mass concentration of particles derived from Lorenz-Mie calculation of OPC scattering (μg/m³),mass concentration of particles derived from Lorenz-Mie calculation of OPC scattering (μg/m³)
DateTimeUTC,F1_M11,P_M11,Q1_M11,Q2_M11,T1_M11,T2_M11,T3_M11,T4_M11,T5_M11,U1_M11,ZSPAN_M11,X0_M11,X2_M11,X1_M11
2023-10-01 10:00:00,SystemResetWarning,0826.7,5.00,000.00,028.6,027.3,000.0,037.0,030.3,20.2,0000.0,0007.83,0003.59,0003.08
2023-10-01 10:01:00,SystemResetWarning,0826.7,5.00,000.00,028.6,027.3,000.0,037.0,030.3,20.6,0000.0,0007.76,0003.55,0003.06
2023-10-01 10:02:00,SystemResetWarning,0826.6,5.00,000.00,028.6,027.3,000.0,037.0,030.3,20.0,0000.0,0007.62,0003.50,0003.04
2023-10-01 10:03:00,SystemResetWarning,0826.6,5.00,000.00,028.6,027.3,000.0,037.0,030.3,19.6,0000.0,0007.69,0003.47,0003.03
2023-10-01 10:04:00,SystemResetWarning,0826.7,4.99,000.00,028.6,027.3,000.0,037.1,030.3,19.4,0000.0,0007.76,0003.45,0003.01
2023-10-01 10:05:00,SystemResetWarning,0826.7,4.99,000.00,028.7,027.3,000.0,037.1,030.3,19.5,0000.0,0007.88,0003.49,0003.02
2023-10-01 10:06:00,SystemResetWarning,0826.6,5.01,000.00,028.7,027.3,000.0,037.1,030.3,19.9,0000.0,0008.13,0003.50,0003.04
2023-10-01 10:07:00,SystemResetWarning,0826.6,5.01,000.00,028.7,027.3,000.0,037.1,030.3,19.7,0000.0,0008.14,0003.52,0003.06
2023-10-01 10:08:00,SystemResetWarning,0826.6,4.99,000.00,028.7,027.3,000.0,037.1,030.4,19.5,0000.0,0008.11,0003.53,0003.05
2023-10-01 10:09:00,SystemResetWarning,0826.6,5.00,000.00,028.7,027.3,000.0,037.1,030.3,19.5,0000.0,0007.65,0003.55,0003.07
2023-10-01 10:10:00,SystemResetWarning,0826.6,4.99,000.00,028.7,027.3,000.0,037.1,030.3,19.5,0000.0,0007.50,0003.57,0003.10
2023-10-01 10:11:00,SystemResetWarning,0826.6,5.00,000.00,028.7,027.3,000.0,037.1,030.3,19.7,0000.0,0007.28,0003.63,0003.12
2023-10-01 10:12:00,SystemResetWarning,0826.6,4.99,000.00,028.7,027.3,000.0,037.1,030.3,19.5,0000.0,0007.44,0003.70,0003.15
2023-10-01 10:13:00,SystemResetWarning,0826.6,5.01,000.00,028.7,027.3,000.0,037.1,030.3,19.3,0000.0,0007.77,0003.78,0003.17
2023-10-01 10:14:00,SystemResetWarning,0826.6,5.01,000.00,028.7,027.3,000.0,037.1,030.3,19.2,0000.0,0007.84,0003.84,0003.19
2023-10-01 10:15:00,SystemResetWarning,0826.6,5.01,000.00,028.7,027.3,000.0,037.1,030.3,19.3,0000.0,0007.76,0003.88,0003.22
2023-10-01 10:16:00,SystemResetWarning,0826.6,4.99,000.00,028.7,027.3,000.0,037.1,030.3,19.2,0000.0,0008.06,0003.90,0003.24
2023-10-01 10:17:00,SystemResetWarning,0826.6,4.99,000.00,028.7,027.3,000.0,037.1,030.3,19.2,0000.0,0008.33,0003.90,0003.22
2023-10-01 10:18:00,SystemResetWarning,0826.6,5.00,000.00,028.7,027.3,000.0,037.1,030.3,19.1,0000.0,0008.54,0003.89,0003.23
2023-10-01 10:19:00,SystemResetWarning,0826.6,5.00,000.00,028.7,027.3,000.0,037.1,030.3,19.2,0000.0,0008.56,0003.88,0003.23
2023-10-01 10:20:00,SystemResetWarning,0826.6,5.01,000.00,028.6,027.3,000.0,037.1,030.3,19.2,0000.0,0009.10,0003.84,0003.22
2023-10-01 10:21:00,SystemResetWarning,0826.6,5.01,000.00,028.7,027.3,000.0,037.1,030.3,19.1,0000.0,0009.32,0003.87,0003.22
2023-10-01 10:22:00,SystemResetWarning,0826.6,5.00,000.00,028.7,027.3,000.0,037.1,030.3,19.5,0000.0,0009.30,0003.84,0003.23
2023-10-01 10:23:00,SystemResetWarning,0826.6,5.00,000.00,028.6,027.3,000.0,037.1,030.3,20.0,0000.0,0009.45,0003.82,0003.22
2023-10-01 10:24:00,SystemResetWarning,0826.6,5.00,000.00,028.7,027.3,000.0,037.1,030.3,19.5,0000.0,0009.54,0003.81,0003.22
2023-10-01 10:25:00,SystemResetWarning,0826.6,5.00,000.00,028.7,027.3,000.0,037.1,030.3,19.3,0000.0,0009.56,0003.78,0003.22
2023-10-01 10:26:00,SystemResetWarning,0826.6,4.99,000.00,028.6,027.3,000.0,037.1,030.3,19.2,0000.0,0010.08,0003.81,0003.23
2023-10-01 10:27:00,SystemResetWarning,0826.6,4.99,000.00,028.7,027.3,000.0,037.1,030.3,19.1,0000.0,0010.24,0003.80,0003.23
2023-10-01 10:28:00,SystemResetWarning,0826.6,4.99,000.00,028.7,027.3,000.0,037.2,030.3,18.9,0000.0,0010.24,0003.79,0003.23
2023-10-01 10:29:00,SystemResetWarning,0826.6,5.00,000.00,028.7,027.3,000.0,037.2,030.3,19.0,0000.0,0010.11,0003.79,0003.23
2023-10-01 10:30:00,SystemResetWarning,0826.6,5.00,000.00,028.7,027.3,000.0,037.2,030.3,18.8,0000.0,0010.43,0003.79,0003.22
2023-10-01 10:31:00,SystemResetWarning,0826.6,5.00,000.00,028.7,027.3,000.0,037.2,030.3,18.9,0000.0,0010.06,0003.83,0003.23
2023-10-01 10:32:00,SystemResetWarning,0826.6,5.00,000.00,028.7,027.3,000.0,037.2,030.3,18.8,0000.0,0009.83,0003.78,0003.23
2023-10-01 10:33:00,SystemResetWarning,0826.6,5.00,000.00,028.7,027.3,000.0,037.2,030.3,18.8,0000.0,0009.99,0003.78,0003.22
2023-10-01 10:34:00,SystemResetWarning,0826.6,5.01,000.00,028.7,027.3,000.0,037.2,030.3,18.6,0000.0,0010.28,0003.80,0003.22
2023-10-01 10:35:00,SystemResetWarning,0826.6,4.99,000.00,028.7,027.3,000.0,037.2,030.3,18.6,0000.0,0010.05,0003.80,0003.21
2023-10-01 10:36:00,SystemResetWarning,0826.6,4.99,000.00,028.7,027.3,000.0,037.2,030.3,18.6,0000.0,0010.43,0003.79,0003.22
2023-10-01 10:37:00,SystemResetWarning,0826.6,5.00,000.00,028.7,027.3,000.0,037.2,030.3,18.8,0000.0,0010.22,0003.79,0003.22
2023-10-01 10:38:00,SystemResetWarning,0826.6,5.01,000.00,028.7,027.3,000.0,037.2,030.3,18.7,0000.0,0009.96,0003.78,0003.22
2023-10-01 10:39:00,SystemResetWarning,0826.6,5.01,000.00,028.7,027.3,000.0,037.2,030.3,18.7,0000.0,0009.46,0003.77,0003.23
2023-10-01 10:40:00,SystemResetWarning,0826.6,5.01,000.00,028.7,027.3,000.0,037.2,030.3,18.7,0000.0,0009.63,0003.78,0003.24
2023-10-01 10:41:00,SystemResetWarning,0826.6,5.00,000.00,028.7,027.3,000.0,037.2,030.3,18.6,0000.0,0009.43,0003.81,0003.25
2023-10-01 10:42:00,SystemResetWarning,0826.6,5.00,000.00,028.7,027.3,000.0,037.2,030.3,18.6,0000.0,0009.26,0003.82,0003.26
2023-10-01 10:43:00,SystemResetWarning,0826.6,5.00,000.00,028.7,027.3,000.0,037.1,030.3,18.6,0000.0,0009.31,0003.86,0003.29
2023-10-01 10:44:00,SystemResetWarning,0826.6,5.00,000.00,028.7,027.3,000.0,037.2,030.3,18.5,0000.0,0009.14,0003.87,0003.30
2023-10-01 10:45:00,SystemResetWarning,0826.6,5.00,000.00,028.7,027.3,000.0,037.2,030.3,18.4,0000.0,0008.75,0003.86,0003.31
2023-10-01 10:46:00,SystemResetWarning,0826.6,5.00,000.00,028.7,027.3,000.0,037.2,030.3,18.4,0000.0,0008.93,0003.86,0003.31
2023-10-01 10:47:00,SystemResetWarning,0826.6,5.00,000.00,028.7,027.3,000.0,037.2,030.3,18.3,0000.0,0008.89,0003.88,0003.31
2023-10-01 10:48:00,SystemResetWarning,0826.6,5.00,000.00,028.7,027.3,000.0,037.2,030.3,18.3,0000.0,0008.91,0003.86,0003.30
2023-10-01 10:49:00,SystemResetWarning,0826.6,5.00,000.00,028.7,027.3,000.0,037.2,030.4,18.1,0000.0,0008.96,0003.85,0003.29
2023-10-01 10:50:00,SystemResetWarning,0826.6,5.00,000.00,028.7,027.4,000.0,037.2,030.4,18.2,0000.0,0009.61,0003.84,0003.28
2023-10-01 10:51:00,SystemResetWarning,0826.6,5.02,000.00,028.7,027.4,000.0,037.2,030.4,17.9,0000.0,0009.88,0003.82,0003.26
2023-10-01 10:52:00,SystemResetWarning,0826.6,5.00,000.00,028.7,027.4,000.0,037.2,030.3,17.5,0000.0,0010.16,0003.80,0003.24
2023-10-01 10:53:00,SystemResetWarning,0826.6,4.99,000.00,028.7,027.4,000.0,037.2,030.3,17.5,0000.0,0011.41,0003.76,0003.22
2023-10-01 10:54:00,SystemResetWarning,0826.6,4.99,000.00,028.7,027.4,000.0,037.2,030.3,17.4,0000.0,0011.44,0003.73,0003.20
2023-10-01 10:55:00,SystemResetWarning,0826.6,5.00,000.00,028.7,027.4,000.0,037.2,030.3,17.1,0000.0,0011.50,0003.72,0003.19
2023-10-01 10:56:00,SystemResetWarning,0826.6,5.01,000.00,028.7,027.4,000.0,037.2,030.3,17.1,0000.0,0011.74,0003.71,0003.19
2023-10-01 10:57:00,SystemResetWarning,0826.6,5.01,000.00,028.7,027.4,000.0,037.2,030.4,17.1,0000.0,0011.87,0003.72,0003.19
2023-10-01 10:58:00,SystemResetWarning,0826.5,5.00,000.00,028.7,027.4,000.0,037.2,030.4,17.1,0000.0,0011.39,0003.74,0003.18
2023-10-01 10:59:00,SystemResetWarning,0826.6,4.99,000.00,028.7,027.4,000.0,037.2,030.4,17.1,0000.0,0011.25,0003.76,0003.18
